User: anonymous   Login
Location: Unspecified
(0.0000°N, 0.0000°E)
Time: 02:00:35
(UTC+00:00)
Language:

Oscar 19 - Orbit

View from above orbital plane
View from above orbital plane
View from above satellite
View from above satellite

Ground track
Ground track

The orbit data is extracted from the following two-line orbital elements,

1 20442U 90005G   21338.43772502  .00000028  00000-0  26864-4 0  9993
2 20442  98.7662 295.6402 0012261  26.3656 333.8149 14.33009175665236
Epoch (UTC): 04 December 2021 10:30:19
Eccentricity: 0.0012261
inclination: 98.7662°
perigee height: 773 km
apogee height: 790 km
right ascension of ascending node: 295.6402°
argument of perigee: 26.3656°
revolutions per day: 14.33009175
mean anomaly at epoch: 333.8149°
orbit number at epoch: 66523

The dashed part of the orbit path shows where the satellite is in the earth's shadow,  

DLR